Погода в Табашино

Россия / Республика Марий Эл     56°58′39″N   47°48′07″E
темп.,
°C
ветер,
м/с
пор.,
м/с
влажн.,
%
обл.,
%
осадки,
мм/ч
давл.,
гПа
погр.,
м
18 апреля, вс
вс1800:00+2св22910 0.0 102522
03:00+1ссв34894 0.0 102562
06:00+2св26885 0.0 1024110
09:00+7св467118 0.0 1024393
12:00+8всв6773100 0.0 1025984
15:00+5всв6981100 0.1 1027905
18:00+4всв61064100 0.0 1028808
21:00+1всв6136971 0.0 1029537
19 апреля, пн
пн1900:000всв51375100 0.0 1029461
03:00−1всв5137785 0.0 1031534
06:000всв613696 0.0 1031615
09:00+3в711425 0.0 10321200
12:00+6в710354 0.0 10321547
15:00+7в69350 0.0 10311652
18:00+5в510440 0.0 1031617
21:00+1в413570 0.0 1032373
20 апреля, вт
вт2000:000в412610 0.0 1033311
03:00−1в412580 0.0 1033324
06:000в411530 0.0 1033405
09:00+5вюв57420 0.0 1033836
12:00+8вюв57320 0.0 10321434
15:00+9юв57310 0.0 10311451
18:00+7вюв49430 0.0 1029386
21:00+3вюв4135546 0.0 1030336
21 апреля, ср
ср2100:00+2вюв5145896 0.0 1029371
03:00+1вюв5156099 0.0 1028443
06:00+2юв61755100 0.0 1026703
09:00+7юв81641100 0.0 10241004
12:00+9юв81636100 0.0 10231201
15:00+7ююв81646100 0.1 10231237
18:00+3ююв81893100 1.1 1022931
21:00+2ююв71796100 2.6 1022886
22 апреля, чт
чт2200:00+3ююв71497100 0.7 1021783
03:00+3ю61295100 1.1 1022647
06:00+3ю51196100 0.1 1023529
09:00+6ю5882100 0.1 1024632
12:00+9ю586784 0.0 10241269
15:00+9ю4878100 0.5 1025754
18:00+9ююв377857 0.1 1025363
21:00+7ююв41093100 0.6 1026382